Location: Unspecified
(48.7670°N, 0.0000°E)
Time: 16:36:06
(UTC+00:00)

A-11 Canister half - Pass Details

Date: 30 June 2019
Orbit: 1526 x 1683 km, 47.3° (Epoch: 21 August)

Event Time Altitude Azimuth Distance (km) Brightness Sun altitude
Exits shadow 02:00:22 17° 206° (SSW) 3,276 10.0 -13.5°
Maximum altitude 02:07:22 43° 144° (SE) 2,075 9.5 -12.9°
Drops below altitude 10° 02:15:59 10° 77° (ENE) 3,716 11.7 -12.2°
Sets 02:19:11 0° 71° (ENE) 4,690 12.4 -11.9°
